Regional Weather Roundup
Issued by NWS

Home | Current Version | Previous Version | Text Only | Print | Product List | Glossary Off
Versions: 1 2 3 4 5 6 7 8 9 10 11 12 13 14 15 16 17 18 19 20 21 22 23 24 25 26 27 28 29 30 31 32 33 34 35 36 37 38 39 40 41 42 43 44 45 46 47 48 49 50

000
ASUS43 KDTX 260710
RWRMI
MICHIGAN HOURLY REGIONAL WEATHER ROUNDUP
NATIONAL WEATHER SERVICE DETROIT/PONTIAC MI
300 AM EDT WED APR 26 2017

NOTE: "FAIR" INDICATES FEW OR NO CLOUDS BELOW 12,000 FEET WITH NO
SIGNIFICANT WEATHER AND/OR OBSTRUCTION TO VISIBILITY.

MIZ047>049-052>055-059>063-066>070-074>076-081>083-260800-
SOUTHEAST LOWER MICHIGAN

CITY           SKY/WX    TMP DP  RH WIND       PRES   REMARKS
ADRIAN         CLEAR     54  52  93 SE8       29.68F
ALMA           CLOUDY    58  54  85 SE6       29.66F
ANN ARBOR      CLEAR     55  52  89 E7        29.70F
BAD AXE        PTCLDY    54  51  90 SE8       29.74F
CARO           MOCLDY    57  53  85 SE7       29.70F
DETROIT CITY   CLEAR     54  52  94 E6        29.75
DETROIT        PTCLDY    56  52  86 E5        29.72F
FLINT          CLEAR     57  51  80 SE9       29.69F
GROSSE ILE     CLEAR     56  53  88 SE6       29.71F
HILLSDALE      MOCLDY    57  52  82 SE8       29.68R
HOWELL         CLEAR     57  50  79 SE15      29.68F

CITY           SKY/WX    TMP DP  RH WIND       PRES   REMARKS
JACKSON        PTCLDY    59  53  80 S8        29.69R
LAMBERTVILLE   CLEAR     52  51  97 SE3       29.69F
LANSING        CLOUDY    59  52  77 SE8       29.68R
LAPEER         FAIR      55  51  85 SE10G16   29.72F
MASON          PTCLDY    58  54  84 S6        29.69R
MONROE         CLEAR     55  53  91 E12       29.71F
MT. CLEMENS    PTCLDY    51  51 100 E5        29.73F
PONTIAC        CLEAR     54  50  86 SE9       29.71F
PORT HOPE        N/A     52  49  89 SE9       29.72F
PORT HURON     CLEAR     54  50  87 SE6       29.75F
TRI CITIES     MOCLDY    58  53  84 SE10      29.68F
MIDLAND        MOCLDY    60  51  72 SE6       29.67F
TROY           CLEAR     54  50  86 E5        29.75F
SAGINAW HB     CLEAR     57  50  77 SE6       29.68F
$$
MIZ043>046-050>051-056>058-064>065-071>073-077>080-260800-
SOUTHWEST LOWER MICHIGAN

CITY           SKY/WX    TMP DP  RH WIND       PRES   REMARKS
BATTLE CREEK   MOCLDY    60  53  77 SE8       29.66F
BENTON HARBOR  CLOUDY    64  54  69 SE8       29.59F
BIG RAPIDS     CLOUDY    60  52  75 S7        29.63F
COLDWATER      PTCLDY    58  53  84 SE6       29.66S
FREMONT        FAIR      63  51  66 SE7       29.61F
HOLLAND        CLOUDY    63  54  72 SE8       29.60F
GRAND RAPIDS   CLOUDY    61  54  77 SE7       29.63F
IONIA          FAIR      59  53  79 SE9       29.64F
KALAMAZOO      CLOUDY    60  52  74 SE5       29.64F
LUDINGTON      CLOUDY    63  55  75 SE8       29.58F
MARSHALL       CLOUDY    58  54  85 SE7       29.66F
MOUNT PLEASANT CLOUDY    59  52  76 SE7       29.66F
MUSKEGON       CLOUDY    64  54  69 SE10      29.59F
SOUTH HAVEN    CLOUDY    62  55  77 SE6       29.59F
$$
MIZ016>042-260800-
NORTHERN LOWER MICHIGAN

CITY           SKY/WX    TMP DP  RH WIND       PRES   REMARKS
ALPENA         CLOUDY    46  46 100 E7        29.74F FOG
BEAVER ISLAND  CLOUDY    43  42  96 E9        29.67F
BELLAIRE       CLOUDY    58  52  79 E3        29.65F
CADILLAC       CLOUDY    58  53  83 SE8       29.65F
CHARLEVOIX     MOCLDY    58  51  76 E9        29.67F
FRANKFORT      CLOUDY    64  52  66 SE7       29.60F
GAYLORD        CLOUDY    57  50  77 SE8       29.69F
GRAYLING       CLOUDY    57  52  83 E7        29.69F
HARBOR SPRINGS CLOUDY    50  48  93 E9        29.68F
HOUGHTON LAKE  CLOUDY    57  51  80 E8        29.68F
MANISTEE       MOCLDY    62  54  74 E8        29.59F
OSCODA         CLOUDY    47  46  96 SW5       29.72F FOG
PELLSTON       PTCLDY    46  42  86 CALM      29.70F
ROGERS CITY    CLOUDY    45  44  95 E5        29.73F FOG
TRAVERSE CITY  CLOUDY    55  46  71 W6        29.62F
$$
MIZ007>008-015-260800-
EASTERN UPPER MICHIGAN

CITY           SKY/WX    TMP DP  RH WIND       PRES   REMARKS
KINROSS        CLOUDY    47  47 100 E13       29.73F FOG
MACKINAC ISLAN FOG       40  40 100 E17G24    29.71F VSB 1/4 WCI  31
NEWBERRY       CLOUDY    47  46  97 E8        29.70F FOG
S. S. MARIE    CLOUDY    50  49  96 SE8       29.74F FOG
MUNISING         N/A     48  48 100 E3        29.69S
$$
MIZ004>006-011>014-085-260800-
CENTRAL UPPER MICHIGAN

CITY           SKY/WX    TMP DP  RH WIND       PRES   REMARKS
MANISTIQUE     CLOUDY    47  46  97 NE9       29.65F
ESCANABA       CLOUDY    48  46  93 NE9       29.62F
MENOMINEE      LGT RAIN  45  43  93 E14       29.59F
SAWYER-GWINN   CLOUDY    45  43  94 NE14      29.65F
$$
MIZ001>003-009>011-084-260800-
WESTERN UPPER MICHIGAN

CITY           SKY/WX    TMP DP  RH WIND       PRES   REMARKS
IRON MOUNTAIN  HVY RAIN  51  46  83 NE5       29.60F
HOUGHTON       LGT RAIN  34  31  88 NE14      29.69F WCI  25
COPPER HARBOR    N/A     36  33  89 E13       29.77F WCI  27
IRONWOOD       LGT RAIN  33  32  96 NE10      29.69F WCI  25
$$

ABBREVIATIONS USED IN REMARKS
   TC - TEMPERATURE IN CELSIUS
  WCI - WIND CHILL INDEX
   HX - HEAT INDEX
  VSB - VISIBILITY




USA.gov is the U.S. government's official web portal to all federal, state and local government web resources and services.